Weather History for Wooster, OH

Change the Weather History Date:

Saturday, January 18, 2014

  Actual Average Record
Temperature  
Mean Temperature 14 °F -  
Max Temperature 19 °F 28 °F 46 °F (1999)
Min Temperature 9 °F 14 °F -6 °F (2005)
Degree Days  
Heating Degree Days 51    
Moisture  
Dew Point 9 °F    
Average Humidity 77    
Maximum Humidity 88    
Minimum Humidity 68    
Precipitation  
Precipitation 0.00 in - - ()
Sea Level Pressure  
Sea Level Pressure 29.95 in    
Wind  
Wind Speed 10 mph (SSW)    
Max Wind Speed 15 mph    
Max Gust Speed 22 mph    
Visibility 6 miles    
Events Snow    
Averages and records for this station are not official NWS values.
T = Trace of Precipitation, MM = Missing Value Source: NWS Daily Summary

Daily Weather History Graph

Daily Weather History Graph

Search for Another Location

Airport:

Trip Planner

Search our weather history database for the weather conditions in past years. The results will help you decide how hot, cold, wet, or windy it might be!

Date:

Astronomy

Jan. 18, 2014 Rise Set
Actual Time 7:48 AM EST 5:27 PM EST
Civil Twilight 7:18 AM EST 5:57 PM EST
Nautical Twilight 6:44 AM EST 6:31 PM EST
Astronomical Twilight 6:12 AM EST 7:04 PM EST
Moon 8:10 PM EST (1/18) 8:46 AM EST (1/18)
Length of Visible Light 10h 39m
Length of Day
9h 39m
Waning Gibbous, 94% of the Moon is Illuminated
Jan 18
Waning Gibbous
Jan 24
Last Quarter
Jan 30
New
Feb 6
First Quarter
Feb 14
Full

Hourly Weather History & Observations

Time (EST) Temp. Windchill Dew Point Humidity Pressure Visibility Wind Dir Wind Speed Gust Speed Precip Events Conditions
12:19 AM 10.9 °F -3.4 °F 3.0 °F 70% 29.96 in 10.0 mi West 11.5 mph - N/A   Scattered Clouds
12:56 AM 10.9 °F -3.4 °F 3.0 °F 70% 30.01 in 10.0 mi West 11.5 mph - N/A   Mostly Cloudy
1:56 AM 10.0 °F -4.5 °F 3.0 °F 73% 30.01 in 10.0 mi WSW 11.5 mph - N/A   Clear
2:56 AM 10.0 °F -3.7 °F 1.9 °F 70% 30.00 in 10.0 mi WSW 10.4 mph - N/A   Clear
3:56 AM 9.0 °F -4.2 °F 3.0 °F 77% 29.99 in 10.0 mi SW 9.2 mph - N/A   Scattered Clouds
4:07 AM 9.0 °F -4.2 °F 3.0 °F 77% 29.94 in 10.0 mi SW 9.2 mph - N/A   Mostly Cloudy
4:56 AM 10.0 °F -1.9 °F 3.9 °F 76% 30.00 in 8.0 mi WSW 8.1 mph - N/A   Overcast
5:56 AM 10.0 °F -1.9 °F 3.9 °F 76% 30.01 in 7.0 mi WSW 8.1 mph - 0.00 in Snow Light Snow
6:56 AM 10.9 °F -1.8 °F 5.0 °F 77% 30.02 in 5.0 mi WSW 9.2 mph - 0.00 in Snow Light Snow
7:56 AM 10.0 °F -2.9 °F 3.9 °F 76% 30.02 in 8.0 mi WSW 9.2 mph - 0.00 in   Mostly Cloudy
8:38 AM 10.0 °F -1.9 °F 6.1 °F 84% 29.96 in 2.0 mi SW 8.1 mph - 0.00 in Snow Light Snow
8:56 AM 10.9 °F -0.8 °F 6.1 °F 81% 30.03 in 2.0 mi SW 8.1 mph - 0.00 in Snow Light Snow
9:09 AM 10.9 °F -0.8 °F 6.1 °F 81% 29.97 in 3.0 mi SW 8.1 mph - 0.00 in Snow Light Snow
9:56 AM 12.0 °F -2.7 °F 7.0 °F 80% 30.05 in 7.0 mi WSW 12.7 mph - 0.00 in   Mostly Cloudy
10:06 AM 12.0 °F -2.0 °F 7.0 °F 80% 29.98 in 9.0 mi SW 11.5 mph - 0.00 in   Scattered Clouds
10:49 AM 15.1 °F -0.1 °F 9.0 °F 77% 29.99 in 10.0 mi SW 15.0 mph 21.9 mph 0.00 in   Mostly Cloudy
10:56 AM 14.0 °F -0.2 °F 8.1 °F 77% 30.06 in 10.0 mi WSW 12.7 mph - 0.00 in   Mostly Cloudy
11:56 AM 15.1 °F 0.5 °F 7.0 °F 70% 30.04 in 9.0 mi WSW 13.8 mph - 0.00 in   Overcast
12:56 PM 17.1 °F 4.3 °F 8.1 °F 68% 30.01 in 10.0 mi SW 11.5 mph - 0.00 in   Overcast
1:56 PM 18.0 °F 5.4 °F 9.0 °F 68% 29.99 in 10.0 mi SSW 11.5 mph - N/A   Overcast
2:56 PM 18.0 °F 5.4 °F 10.0 °F 71% 29.98 in 10.0 mi SSW 11.5 mph - N/A   Overcast
3:56 PM 18.0 °F 6.9 °F 9.0 °F 68% 29.97 in 10.0 mi SSW 9.2 mph - N/A   Mostly Cloudy
4:56 PM 19.0 °F 7.5 °F 10.0 °F 68% 29.96 in 10.0 mi South 10.4 mph - N/A   Overcast
5:40 PM 18.0 °F 4.2 °F 9.0 °F 68% 29.90 in 10.0 mi South 13.8 mph - N/A   Partly Cloudy
5:56 PM 18.0 °F 5.4 °F 10.0 °F 71% 29.97 in 10.0 mi South 11.5 mph - N/A   Clear
6:56 PM 18.0 °F 7.7 °F 10.0 °F 71% 29.96 in 10.0 mi South 8.1 mph - N/A   Mostly Cloudy
7:56 PM 18.0 °F 6.9 °F 10.9 °F 74% 29.94 in 10.0 mi South 9.2 mph - N/A   Overcast
8:20 PM 18.0 °F 6.1 °F 12.0 °F 78% 29.87 in 1.8 mi South 10.4 mph - 0.00 in Snow Light Snow
8:27 PM 18.0 °F 6.9 °F 12.9 °F 81% 29.87 in 1.2 mi South 9.2 mph - 0.00 in Snow Light Snow
8:56 PM 18.0 °F 7.7 °F 14.0 °F 84% 29.93 in 1.2 mi South 8.1 mph - 0.00 in Snow Light Snow
9:04 PM 17.1 °F 6.6 °F 14.0 °F 88% 29.86 in 1.0 mi South 8.1 mph - 0.00 in Snow Light Snow
9:25 PM 17.1 °F 7.6 °F 14.0 °F 88% 29.86 in 1.2 mi South 6.9 mph - 0.00 in Snow Light Snow
9:56 PM 17.1 °F 7.6 °F 14.0 °F 88% 29.91 in 1.5 mi South 6.9 mph - 0.00 in Snow Light Snow
10:29 PM 18.0 °F 9.8 °F 14.0 °F 84% 29.84 in 2.0 mi South 5.8 mph - 0.00 in Snow Light Snow
10:51 PM 17.6 °F 8.2 °F 14.0 °F 86% 29.82 in 1.5 mi SSE 6.9 mph - 0.00 in Snow Light Snow
10:56 PM 18.0 °F 8.7 °F 14.0 °F 84% 29.88 in 1.2 mi South 6.9 mph - 0.00 in Snow Light Snow
11:14 PM 18.0 °F 8.7 °F 14.0 °F 84% 29.81 in 2.0 mi South 6.9 mph - 0.00 in Snow Light Snow
11:24 PM 18.0 °F 9.8 °F 14.0 °F 84% 29.80 in 3.0 mi SSE 5.8 mph - 0.00 in Snow Light Snow
11:49 PM 18.0 °F 9.8 °F 14.0 °F 84% 29.79 in 2.0 mi South 5.8 mph - 0.00 in Snow Light Snow
11:56 PM 18.0 °F 9.8 °F 14.0 °F 84% 29.85 in 2.5 mi South 5.8 mph - 0.00 in Snow Light Snow